North Bennington, VT

2:48 PM EDT on August 24, 2016 (GMT -0400)
Morse State

Weather History for KDDH - September, 2014

Change the Weather History Date:

Friday, September 5, 2014

  Actual Average Record
Temperature  
Mean Temperature 73 °F 63 °F  
Max Temperature 87 °F 74 °F 87 °F (2014)
Min Temperature 58 °F 51 °F 37 °F (2000)
Degree Days  
Heating Degree Days 0 4  
Month to date heating degree days 0 17  
Since 1 July heating degree days 53 89  
Cooling Degree Days 8 1  
Month to date cooling degree days 30 9  
Year to date cooling degree days 283 297  
Growing Degree Days 22 (Base 50)    
Moisture  
Dew Point 65 °F    
Average Humidity 76    
Maximum Humidity 97    
Minimum Humidity 55    
Precipitation  
Precipitation 0.00 in 0.10 in 0.51 in (2012)
Month to date precipitation 0.23 0.51  
Year to date precipitation 26.19 28.05  
Sea Level Pressure  
Sea Level Pressure 30.08 in    
Wind  
Wind Speed 4 mph (SSW)    
Max Wind Speed 15 mph    
Max Gust Speed 23 mph    
Visibility 9 miles    
Events      
T = Trace of Precipitation, MM = Missing Value Source: NWS Daily Summary

Daily Weather History Graph

Daily Weather History Graph

Search for Another Location

Airport or City:

Trip Planner

Search our weather history database for the weather conditions in past years. The results will help you decide how hot, cold, wet, or windy it might be!

Date:

Astronomy

Sep. 05, 2014 Rise Set
Actual Time 6:21 AM EDT 7:20 PM EDT
Civil Twilight 5:52 AM EDT 7:49 PM EDT
Nautical Twilight 5:18 AM EDT 8:23 PM EDT
Astronomical Twilight 4:42 AM EDT 8:59 PM EDT
Moon 4:51 PM EDT (9/5) 2:08 AM EDT (9/5)
Length of Visible Light 13h 56m
Length of Day
12h 58m
Waxing Gibbous, 83% of the Moon is Illuminated
Sep 5
Waxing Gibbous
Sep 8
Full
Sep 15
Last Quarter
Sep 24
New
Oct 1
First Quarter

Hourly Weather History & Observations

Time (EDT) Temp. Heat Index Dew Point Humidity Pressure Visibility Wind Dir Wind Speed Gust Speed Precip Events Conditions
12:54 AM 62.1 °F - 60.1 °F 93% 30.12 in 10.0 mi North 3.5 mph - N/A   Clear
1:54 AM 61.0 °F - 59.0 °F 93% 30.14 in 9.0 mi Calm Calm - N/A   Clear
2:54 AM 60.1 °F - 57.9 °F 93% 30.15 in 9.0 mi Calm Calm - N/A   Clear
3:54 AM 59.0 °F - 57.9 °F 96% 30.14 in 7.0 mi Calm Calm - N/A   Partly Cloudy
4:54 AM 59.0 °F - 57.9 °F 96% 30.14 in 7.0 mi Calm Calm - N/A   Partly Cloudy
5:54 AM 59.0 °F - 57.0 °F 93% 30.13 in 4.0 mi Calm Calm - N/A   Clear
6:54 AM 60.1 °F - 57.9 °F 93% 30.13 in 6.0 mi Calm Calm - N/A   Clear
7:54 AM 64.0 °F - 62.1 °F 93% 30.15 in 8.0 mi Calm Calm - N/A   Scattered Clouds
8:08 AM 64.9 °F - 62.1 °F 90% 30.17 in 7.0 mi Calm Calm - N/A   Mostly Cloudy
8:54 AM 66.9 °F - 64.0 °F 90% 30.16 in 9.0 mi Calm Calm - N/A   Overcast
9:47 AM 73.0 °F - 64.9 °F 76% 30.17 in 10.0 mi Calm Calm - N/A   Mostly Cloudy
10:03 AM 73.9 °F - 64.9 °F 73% 30.17 in 10.0 mi Calm Calm - N/A   Mostly Cloudy
10:20 AM 77.0 °F - 66.0 °F 69% 30.15 in 10.0 mi Variable 3.5 mph - N/A   Scattered Clouds
10:54 AM 80.1 °F 82.3 °F 66.9 °F 64% 30.12 in 10.0 mi South 5.8 mph - N/A   Clear
11:54 AM 82.9 °F 85.8 °F 68.0 °F 60% 30.09 in 10.0 mi Variable 6.9 mph - N/A   Clear
12:35 PM 84.0 °F 87.8 °F 69.1 °F 61% 30.08 in 2.0 mi SSW 6.9 mph - N/A   Haze
12:45 PM 82.9 °F 85.8 °F 68.0 °F 60% 30.09 in 10.0 mi South 8.1 mph - N/A   Scattered Clouds
12:54 PM 84.0 °F 87.8 °F 69.1 °F 61% 30.07 in 10.0 mi South 9.2 mph - N/A   Scattered Clouds
1:54 PM 84.9 °F 88.2 °F 68.0 °F 57% 30.06 in 10.0 mi SSW 9.2 mph - N/A   Mostly Cloudy
2:54 PM 84.9 °F 88.2 °F 68.0 °F 57% 30.04 in 10.0 mi SSW 10.4 mph - N/A   Mostly Cloudy
3:54 PM 86.0 °F 89.4 °F 68.0 °F 55% 30.02 in 10.0 mi South 12.7 mph 20.7 mph N/A   Clear
4:54 PM 86.0 °F 90.1 °F 69.1 °F 57% 30.02 in 10.0 mi SSW 12.7 mph 23.0 mph N/A   Partly Cloudy
6:54 PM 81.0 °F 83.8 °F 68.0 °F 65% 29.99 in 10.0 mi South 5.8 mph - N/A   Clear
7:54 PM 79.0 °F - 68.0 °F 69% 29.99 in 10.0 mi Variable 4.6 mph - N/A   Clear
8:54 PM 78.1 °F - 69.1 °F 74% 29.98 in 10.0 mi South 8.1 mph - N/A   Clear
9:54 PM 77.0 °F - 68.0 °F 74% 29.98 in 10.0 mi SSW 3.5 mph - N/A   Clear
10:54 PM 75.9 °F - 68.0 °F 76% 29.97 in 10.0 mi South 4.6 mph - N/A   Clear
11:54 PM 73.0 °F - 66.9 °F 81% 29.96 in 10.0 mi Calm Calm - N/A   Clear